Latest Coastal Weather Observations for Browse Island

IDW60701

Issued at 6:41 pm WST Tuesday 3 May 2016 (issued every 10 minutes, with the page automatically refreshed every 10 minutes)

About coastal observations | Map of coastal stations | Coastal observations for WA | Marine services | Other Formats
Station Details ID: 200784 Name: BROWSE ISLAND Lat: -14.11 Lon: 123.55 Height: 3.7 m
Data from the previous 72 hours. | See also: Recent months at Browse Island
Date/Time
WST
Temp

°C
Wind Pressure Rain
since 9am
mm
Weather Cloud Vis
km
Sea
Height
m
Swell
Dir
 
Speed
knots
Gust
knots
hPa Trend Height
m
Period
s
Dir
03/06:30pm 31.0 ESE 5 5 1010.0 - - - - - - - - -
03/06:00pm 30.7 SE 5 - 1009.7 - - - - - - - - -
03/05:30pm 31.0 SE 5 - 1009.0 - - - - - - - - -
03/05:00pm 30.9 SE 7 - 1009.2 - - - - - - - - -
03/04:30pm 31.0 SSE 6 - 1008.0 - - - - - - - - -
03/04:00pm 31.5 SE 6 - 1008.5 - - - - - - - - -
03/03:30pm 31.0 SE 5 - 1008.0 - - - - - - - - -
03/03:00pm 31.7 SE 6 - 1008.6 - - - - - - - - -
03/02:30pm 32.0 SSE 5 - 1008.0 - - - - - - - - -
03/02:00pm 31.9 SE 5 - 1008.5 - - - - - - - - -
03/01:30pm 31.0 SE 6 - 1008.0 - - - - - - - - -
03/01:00pm 31.9 SE 6 - 1009.1 - - - - - - - - -
03/12:30pm 32.0 SSE 5 - 1009.0 - - - - - - - - -
03/12:00pm 31.6 SSE 5 - 1010.2 - - - - - - - - -
03/11:30am 32.0 SE 6 - 1010.0 - - - - - - - - -
03/11:00am 32.1 SSE 5 - 1011.0 - - - - - - - - -
03/10:30am 32.0 SSE 6 - 1011.0 - - - - - - - - -
03/10:00am 31.4 SE 6 - 1011.6 - - - - - - - - -
03/09:30am 31.0 SE 6 - 1012.0 - - - - - - - - -
03/09:00am 31.3 SSE 7 - 1011.9 - - - - - - - - -
03/08:30am 31.0 SSE 7 - 1011.0 - - - - - - - - -
03/08:00am 30.9 SSE 7 - 1011.6 - - - - - - - - -
03/07:30am 31.0 SE 7 - 1011.0 - - - - - - - - -
03/07:00am 30.4 SE 7 - 1011.2 - - - - - - - - -
03/06:30am 30.0 SE 7 - 1010.0 - - - - - - - - -
03/06:00am 30.0 S 8 - 1010.4 - - - - - - - - -
03/05:30am 30.0 S 8 - 1010.0 - - - - - - - - -
03/05:00am 30.0 S 9 - 1009.8 - - - - - - - - -
03/04:30am 30.0 S 9 - 1009.0 - - - - - - - - -
03/04:00am 29.9 S 8 - 1009.7 - - - - - - - - -
03/03:30am 30.0 S 7 - 1009.0 - - - - - - - - -
03/03:00am 29.9 S 6 - 1009.8 - - - - - - - - -
03/02:30am 30.0 S 5 - 1010.0 - - - - - - - - -
03/02:00am 30.0 S 6 - 1010.2 - - - - - - - - -
03/01:30am 30.0 S 5 - 1010.0 - - - - - - - - -
03/01:00am 30.1 S 5 - 1010.6 - - - - - - - - -
03/12:30am 30.0 S 4 - 1011.0 - - - - - - - - -
03/12:00am 30.1 S 4 - 1011.2 - - - - - - - - -
 
Date/Time
WST
Temp

°C
Wind Pressure Rain
since 9am
mm
Weather Cloud Vis
km
Sea
Height
m
Swell
Dir
 
Speed
knots
Gust
knots
hPa Trend Height
m
Period
s
Dir
02/11:30pm 30.0 S 4 - 1011.0 - - - - - - - - -
02/11:00pm 30.2 SSW 5 - 1011.7 - - - - - - - - -
02/10:30pm 30.0 SSW 6 - 1012.0 - - - - - - - - -
02/10:00pm 30.2 SW 5 - 1011.9 - - - - - - - - -
02/09:30pm 30.0 SW 5 - 1012.0 - - - - - - - - -
02/09:00pm 30.4 SW 6 - 1012.1 - - - - - - - - -
02/08:30pm 30.0 SW 7 - 1012.0 - - - - - - - - -
02/08:00pm 30.4 SW 7 - 1011.9 - - - - - - - - -
02/07:30pm 31.0 SSW 7 - 1011.0 - - - - - - - - -
02/07:00pm 30.5 SSW 8 - 1011.5 - - - - - - - - -
02/06:30pm 31.0 SSW 8 - 1011.0 - - - - - - - - -
02/06:00pm 30.8 S 8 - 1010.6 - - - - - - - - -
02/05:30pm 31.0 S 8 - 1010.0 - - - - - - - - -
02/05:00pm 30.7 S 8 - 1009.9 - - - - - - - - -
02/04:30pm 31.0 S 8 - 1009.0 - - - - - - - - -
02/04:00pm 30.7 S 8 - 1009.2 - - - - - - - - -
02/03:30pm 31.0 S 8 - 1009.0 - - - - - - - - -
02/03:00pm 31.0 S 8 - 1009.2 - - - - - - - - -
02/02:30pm 31.0 S 9 - 1009.0 - - - - - - - - -
02/02:00pm 31.0 S 10 - 1009.6 - - - - - - - - -
02/01:30pm 31.0 S 9 - 1009.0 - - - - - - - - -
02/01:00pm 31.0 S 10 - 1010.0 - - - - - - - - -
02/12:30pm 31.0 S 11 - 1010.0 - - - - - - - - -
02/12:00pm 30.5 S 11 - 1010.8 - - - - - - - - -
02/11:30am 31.0 S 11 - 1011.0 - - - - - - - - -
02/11:00am 30.5 S 12 - 1011.7 - - - - - - - - -
02/10:30am 31.0 S 11 - 1012.0 - - - - - - - - -
02/10:00am 30.6 S 11 - 1012.4 - - - - - - - - -
02/09:30am 30.0 S 11 - 1012.0 - - - - - - - - -
02/09:00am 30.3 S 10 - 1012.5 - - - - - - - - -
02/08:30am 30.0 S 10 - 1012.0 - - - - - - - - -
02/08:00am 29.9 SSW 10 - 1012.1 - - - - - - - - -
02/07:30am 30.0 SSW 10 - 1012.0 - - - - - - - - -
02/07:00am 30.0 SSW 9 - 1011.5 - - - - - - - - -
02/06:30am 30.0 SSW 10 - 1011.0 - - - - - - - - -
02/06:00am 29.9 SW 9 - 1010.7 - - - - - - - - -
02/05:30am 30.0 SW 9 - 1010.0 - - - - - - - - -
02/05:00am 29.7 SW 11 - 1010.1 - - - - - - - - -
02/04:30am 30.0 SSW 10 - 1010.0 - - - - - - - - -
02/04:00am 29.7 SSW 9 - 1009.7 - - - - - - - - -
02/03:30am 30.0 SSW 10 - 1009.0 - - - - - - - - -
02/03:00am 29.8 SSW 9 - 1009.7 - - - - - - - - -
02/02:30am 30.0 SSW 9 - 1009.0 - - - - - - - - -
02/02:00am 29.9 SW 9 - 1009.8 - - - - - - - - -
02/01:30am 30.0 SW 10 - 1010.0 - - - - - - - - -
02/01:00am 29.8 SW 10 - 1010.2 - - - - - - - - -
02/12:30am 30.0 SW 10 - 1010.0 - - - - - - - - -
02/12:00am 29.7 SW 8 - 1010.5 - - - - - - - - -
 
Date/Time
WST
Temp

°C
Wind Pressure Rain
since 9am
mm
Weather Cloud Vis
km
Sea
Height
m
Swell
Dir
 
Speed
knots
Gust
knots
hPa Trend Height
m
Period
s
Dir
01/11:30pm 30.0 SW 10 - 1010.0 - - - - - - - - -
01/11:00pm 29.7 SW 9 - 1010.8 - - - - - - - - -
01/10:30pm 30.0 SW 9 - 1010.0 - - - - - - - - -
01/10:00pm 29.7 SSW 8 - 1011.1 - - - - - - - - -
01/09:30pm 30.0 SSW 8 - 1011.0 - - - - - - - - -
01/09:00pm 29.7 SSW 8 - 1011.7 - - - - - - - - -
01/08:30pm 30.0 S 7 - 1011.0 - - - - - - - - -
01/08:00pm 29.9 S 8 - 1011.7 - - - - - - - - -
01/07:30pm 30.0 S 10 - 1011.0 - - - - - - - - -
01/07:00pm 30.0 S 11 - 1011.1 - - - - - - - - -
01/06:30pm 30.0 S 10 - 1010.0 - - - - - - - - -
01/06:00pm 30.1 S 9 - 1010.5 - - - - - - - - -
01/05:30pm 30.0 S 9 - 1010.0 - - - - - - - - -
01/05:00pm 30.0 S 8 - 1010.0 - - - - - - - - -
01/04:30pm 30.0 S 9 - 1009.0 - - - - - - - - -
01/04:00pm 30.1 S 9 - 1009.7 - - - - - - - - -
01/03:30pm 30.0 S 9 - 1009.0 - - - - - - - - -
01/03:00pm 30.2 S 9 - 1009.2 - - - - - - - - -
01/02:30pm 30.0 S 9 - 1009.0 - - - - - - - - -
01/02:00pm 30.0 S 9 - 1009.5 - - - - - - - - -
01/01:30pm 31.0 S 9 - 1010.0 - - - - - - - - -
01/01:00pm 30.0 S 10 - 1010.1 - - - - - - - - -
01/12:30pm 30.0 S 10 - 1010.0 - - - - - - - - -
01/12:00pm 29.9 S 9 - 1010.9 - - - - - - - - -
01/11:30am 30.0 S 9 - 1011.0 - - - - - - - - -
01/11:00am 29.7 S 10 - 1011.8 - - - - - - - - -
01/10:30am 30.0 S 9 - 1012.0 - - - - - - - - -
01/10:00am 30.0 S 8 - 1012.7 - - - - - - - - -
01/09:30am 30.0 S 7 - 1013.0 - - - - - - - - -
01/09:00am 29.6 S 8 - 1013.1 - - - - - - - - -
01/08:30am 30.0 S 9 - 1013.0 - - - - - - - - -
01/08:00am 29.4 SSW 8 - 1012.8 - - - - - - - - -
01/07:30am 29.0 S 10 - 1012.0 - - - - - - - - -
01/07:00am 29.3 SSW 9 - 1012.5 - - - - - - - - -
01/06:30am 29.0 SSW 8 - 1012.0 - - - - - - - - -
01/06:00am 29.2 SW 8 - 1012.0 - - - - - - - - -
01/05:30am 29.0 WSW 8 - 1011.0 - - - - - - - - -
01/05:00am 29.0 WSW 6 - 1011.5 - - - - - - - - -
01/04:30am 29.0 WSW 5 - 1011.0 - - - - - - - - -
01/04:00am 29.0 SSW 5 - 1011.1 - - - - - - - - -
01/03:30am 29.0 SW 5 - 1011.0 - - - - - - - - -
01/03:00am 29.1 W 4 - 1010.8 - - - - - - - - -
01/02:30am 29.0 W 3 - 1010.0 - - - - - - - - -
01/02:00am 29.2 WSW 4 - 1010.6 - - - - - - - - -
01/01:30am 29.0 SSW 2 - 1010.0 - - - - - - - - -
01/01:00am 29.2 SW 4 - 1010.9 - - - - - - - - -
01/12:30am 29.0 SSW 6 - 1011.0 - - - - - - - - -
01/12:00am 29.4 SSW 5 - 1011.3 - - - - - - - - -
 
Date/Time
WST
Temp

°C
Wind Pressure Rain
since 9am
mm
Weather Cloud Vis
km
Sea
Height
m
Swell
Dir
 
Speed
knots
Gust
knots
hPa Trend Height
m
Period
s
Dir
30/11:30pm 30.0 SW 5 - 1011.0 - - - - - - - - -
30/11:00pm 29.6 SW 5 - 1011.6 - - - - - - - - -
30/10:30pm 30.0 SSW 4 - 1011.0 - - - - - - - - -
30/10:00pm 29.7 SSW 5 - 1011.8 - - - - - - - - -
30/09:30pm 30.0 S 7 - 1011.0 - - - - - - - - -
30/09:00pm 30.0 S 7 - 1011.7 - - - - - - - - -
30/08:30pm 30.0 S 6 - 1011.0 - - - - - - - - -
30/08:00pm 30.0 SSW 7 - 1011.4 - - - - - - - - -
30/07:30pm 30.0 S 8 - 1011.0 - - - - - - - - -
30/07:00pm 30.0 S 7 - 1010.9 - - - - - - - - -

Other Formats:

Comma delimited format used in spreadsheet applications
http://www.bom.gov.au/fwo/IDW60701/IDW60701.94103.axf

JavaScript Object Notation format (JSON) in row-major order
http://www.bom.gov.au/fwo/IDW60701/IDW60701.94103.json